Wetbulb
33.53 33.60 33.47 33.26 32.75 32.65 32.65 32.87 32.77 32.82 32.94 33.25 33.53 33.94 34.25 34.31 34.20 34.27 34.46 34.61 34.56 34.59 34.74 35.19 35.49 35.73 36.03 36.26 36.19 36.10 36.20 36.25 36.22 35.99 35.72 35.82 36.02 36.20 36.45 36.48 36.45 36.47 36.41 36.25 35.97 35.81 35.62 35.49 35.13 34.79 34.52 34.58 34.70 34.80 34.95 35.45 35.93 36.03 35.89 35.94 36.08 36.54 36.90 36.89 37.19 37.79 38.56 39.03 39.58
32.91 33.15 32.98 32.32 32.01 32.16 32.50 32.59 32.74 32.80 32.93 33.34 33.58 33.88 34.02 33.94 33.60 33.66 33.74 33.89 33.99 34.21 34.32 34.47 34.81 34.99 35.04 35.16 35.16 35.23 35.23 35.27 35.34 35.26 35.14 35.11 35.21 35.45 35.48 35.45 35.54 35.63 35.61 35.41 35.05 34.77 34.51 34.51 34.29 34.07 33.98 34.09 34.14 34.14 34.44 35.44 35.84 35.59 35.25 35.14 35.28 35.44 35.65 35.65 35.88 36.42 36.97 37.51 38.24
32.48 32.69 32.76 32.47 32.36 32.29 32.20 32.17 32.39 32.63 32.91 33.37 33.65 33.72 33.60 33.45 33.21 33.10 33.10 33.31 33.77 33.88 33.86 33.74 34.14 34.14 34.18 34.08 34.14 34.23 34.31 34.31 34.35 34.35 34.29 34.29 34.43 34.58 34.72 34.87 34.93 35.11 35.16 35.11 34.81 34.60 34.30 34.25 33.92 33.60 33.39 33.43 33.42 33.50 33.84 34.48 34.98 34.91 34.67 34.64 34.89 35.04 35.04 35.04 35.42 35.76 36.05 36.22 36.74
31.92 32.05 32.07 31.91 31.81 31.64 31.60 31.58 31.87 32.08 32.41 32.61 32.95 33.09 32.97 32.93 32.87 32.89 32.95 33.14 33.21 33.20 33.16 33.25 33.30 33.40 33.31 33.05 33.13 33.34 33.54 33.47 33.53 33.46 33.46 33.37 33.51 33.83 34.07 34.31 34.27 34.54 34.79 34.95 34.71 34.57 34.47 34.24 33.84 33.63 33.37 33.39 33.29 33.29 33.37 33.85 34.31 34.47 34.49 34.74 34.80 34.91 35.00 35.08 35.33 35.59 35.83 35.81 36.16
31.26 31.43 31.52 31.52 31.50 31.46 31.52 31.61 31.65 31.72 31.87 32.18 31.98 32.03 32.12 32.26 32.42 32.54 32.60 32.43 32.32 32.47 32.74 32.91 32.74 32.73 32.75 32.59 32.66 32.79 32.92 32.77 32.24 32.32 32.62 32.88 32.96 33.17 33.59 33.95 34.06 34.05 34.05 34.10 34.03 34.12 34.14 33.85 33.55 33.39 33.34 33.34 33.26 33.26 33.52 33.89 34.03 34.11 34.11 34.26 34.50 34.64 34.80 34.92 35.13 35.37 35.48 35.51 35.83
30.82 31.19 31.36 31.51 31.46 31.42 31.45 31.57 31.50 31.43 31.42 31.53 31.20 31.12 31.16 31.45 31.72 31.82 31.83 31.80 32.04 32.18 32.05 31.77 31.74 31.63 31.65 32.00 31.93 31.87 31.93 31.96 31.56 31.58 31.68 31.85 32.07 32.22 32.38 32.48 32.73 32.95 33.01 33.05 33.33 33.51 33.72 33.46 32.98 32.86 32.96 33.10 33.38 33.61 33.89 33.90 33.97 33.85 33.69 33.68 33.94 34.21 34.54 34.84 34.89 35.08 35.31 35.34 35.51
30.59 30.78 30.93 31.09 31.16 31.15 30.99 31.08 31.16 31.22 31.07 31.01 30.75 30.61 30.63 30.93 31.08 31.14 31.20 31.13 31.13 31.07 30.95 30.77 30.71 30.49 30.33 30.54 30.61 30.77 30.85 30.97 31.09 31.27 31.29 31.28 31.46 31.71 31.86 32.03 32.33 32.46 32.55 32.65 32.81 32.91 33.02 33.12 32.66 32.48 32.57 32.47 32.72 33.16 33.68 33.73 33.70 33.46 33.13 32.98 33.44 33.91 34.36 34.73 34.88 34.92 35.01 35.43 35.43
30.59 30.55 30.59 30.69 30.77 30.80 30.71 30.71 30.69 30.67 30.47 30.37 30.36 30.29 30.29 30.47 30.53 30.56 30.53 30.22 30.13 30.24 30.38 30.32 30.30 30.30 30.13 30.01 29.99 30.22 30.40 30.47 30.42 30.63 30.72 30.65 30.73 30.97 31.25 31.54 31.69 31.88 32.28 32.48 32.28 32.29 32.42 32.51 32.31 32.31 32.31 32.48 32.33 32.63 33.08 33.67 33.67 33.38 33.02 32.76 33.06 33.49 34.02 34.59 35.14 35.23 35.31 35.66 35.98
30.09 30.30 30.36 30.40 30.41 30.31 30.31 30.33 30.23 29.99 29.70 29.72 29.86 29.99 30.14 30.22 30.22 30.14 29.90 29.62 29.63 29.98 30.13 29.93 30.14 30.14 30.09 30.00 30.08 30.09 30.08 29.91 29.98 30.09 30.28 30.42 30.53 30.63 30.80 30.95 31.04 31.21 31.49 31.97 31.87 32.04 32.06 31.87 31.76 31.76 31.94 31.99 31.93 32.37 33.16 33.69 33.84 33.51 33.04 32.70 32.86 33.16 33.53 34.06 34.49 34.95 35.16 35.32 35.72
29.41 29.53 29.72 29.67 29.76 29.77 29.83 29.70 29.67 29.48 29.25 29.10 29.50 29.80 29.86 29.47 29.55 29.47 29.52 29.44 29.52 29.65 29.64 29.58 29.83 29.85 29.85 29.84 29.86 29.92 29.87 29.69 29.90 30.14 30.32 30.39 30.48 30.58 30.60 30.55 30.73 30.75 30.87 31.30 31.44 31.55 31.53 31.35 31.27 31.60 31.90 31.89 32.06 32.53 33.17 33.73 33.47 33.40 33.20 32.77 32.96 33.26 33.57 33.75 33.95 34.05 34.33 34.57 35.17
28.72 28.88 28.93 28.93 29.15 29.08 29.01 28.85 28.82 28.77 28.70 28.72 29.00 29.23 29.23 28.85 28.98 29.01 29.16 29.33 29.05 28.87 28.99 29.44 29.52 29.49 29.44 29.50 29.61 29.72 29.62 29.52 29.42 29.57 29.87 30.06 30.14 30.33 30.49 30.49 30.57 30.66 30.68 30.95 31.08 31.14 31.08 30.79 30.81 31.24 31.61 31.65 31.98 32.39 32.88 33.31 33.16 33.16 33.26 33.22 33.48 33.65 33.87 33.96 34.03 33.99 33.93 34.21 34.77
28.19 28.19 28.26 28.31 28.36 28.28 28.08 27.93 27.90 28.00 28.08 28.00 28.20 28.41 28.57 28.62 28.78 28.88 28.86 28.79 28.33 28.31 28.63 29.41 29.48 29.41 29.34 29.29 29.55 29.71 29.69 29.78 29.85 29.78 29.85 30.22 30.61 30.68 30.75 30.67 30.62 30.60 30.55 30.69 30.85 30.69 30.58 30.41 30.43 30.43 30.66 30.92 31.35 31.63 32.00 32.39 32.44 32.46 32.49 32.97 33.33 33.49 33.68 34.28 34.33 34.22 34.19 34.43 34.68
27.39 27.39 27.39 27.44 27.51 27.47 27.32 27.19 27.16 27.39 27.47 27.34 27.59 27.83 28.01 28.25 28.67 28.73 28.47 28.15 27.99 28.04 28.45 29.25 29.53 29.60 29.53 29.64 29.91 30.08 30.23 30.52 30.94 30.83 30.57 30.81 31.22 31.27 31.11 30.76 30.62 30.43 30.37 30.43 30.59 30.49 30.34 30.26 30.28 30.35 30.42 30.57 30.87 31.20 31.56 31.69 31.68 31.58 31.61 31.82 32.30 32.44 32.70 33.62 34.01 34.32 34.38 34.55 34.41
26.43 26.45 26.45 26.58 26.80 26.71 26.52 26.43 26.27 26.40 26.65 26.68 26.96 27.27 27.54 27.85 28.28 28.42 28.29 27.94 27.94 28.00 28.34 28.93 29.40 29.80 30.02 30.38 30.51 30.77 30.96 31.11 31.06 30.88 30.67 30.68 30.87 30.77 30.52 30.32 30.06 29.92 29.83 29.98 30.33 30.40 30.32 30.11 30.24 30.28 30.37 30.51 30.71 31.04 31.30 31.51 31.30 31.23 31.23 31.21 31.33 31.60 32.04 32.81 33.40 33.90 34.18 34.34 34.20
25.63 25.68 25.83 25.94 25.97 25.78 25.55 25.46 25.54 25.71 26.01 26.15 26.52 26.91 27.27 27.35 27.66 27.86 27.94 28.03 28.13 28.05 28.16 28.76 29.08 29.58 30.05 30.67 30.75 30.85 30.92 30.94 30.67 30.34 30.26 30.26 30.26 29.92 29.46 29.39 29.39 29.56 29.70 30.00 30.22 30.31 30.41 30.51 30.55 30.51 30.37 30.35 30.63 30.95 31.23 31.39 31.39 31.33 31.26 31.24 31.33 31.52 31.84 32.18 32.61 33.09 33.49 33.84 34.02
25.05 25.05 25.05 25.10 25.01 24.96 24.95 25.07 25.31 25.56 25.85 25.84 26.40 26.71 26.87 26.82 27.08 27.31 27.53 27.80 27.83 27.81 28.12 28.67 29.08 29.63 29.95 30.20 30.37 30.31 30.18 29.88 29.65 29.65 29.56 29.44 29.35 29.11 28.85 28.86 29.12 29.44 29.70 30.26 30.31 30.61 30.88 31.02 31.04 30.81 30.68 30.45 30.45 30.72 30.95 31.12 31.47 31.47 31.51 31.40 31.61 31.70 31.84 32.12 32.37 32.61 32.88 33.23 33.23
24.33 24.44 24.58 24.60 24.49 24.47 24.58 24.75 24.96 25.23 25.47 25.70 26.02 26.34 26.42 26.50 26.71 26.86 27.01 27.24 27.50 27.66 28.08 28.73 28.94 29.10 29.10 28.93 29.26 29.12 28.92 28.59 28.57 28.69 28.78 28.93 28.69 28.60 28.60 28.69 29.04 29.30 29.65 30.01 30.18 30.45 30.80 30.96 31.20 31.21 31.05 30.70 30.63 30.63 30.86 31.03 31.12 31.30 31.47 31.56 31.77 31.86 32.04 32.18 32.35 32.65 32.83 33.09 32.91
23.77 23.98 24.10 24.15 24.18 24.14 24.29 24.37 24.53 24.77 25.01 25.30 25.62 25.95 26.11 26.30 26.55 26.66 26.87 27.26 27.55 27.89 28.06 28.32 28.49 28.57 28.41 28.15 28.17 28.16 28.04 27.81 27.87 28.05 28.25 28.40 28.49 28.58 28.61 28.67 29.02 29.45 29.71 30.08 30.20 30.46 30.69 30.88 30.97 31.04 30.97 30.79 30.68 30.81 30.89 31.12 31.16 31.33 31.56 31.65 31.82 32.09 32.26 32.28 32.54 32.88 33.09 33.23 33.18
23.55 23.68 23.73 23.87 23.95 24.01 24.04 24.16 24.27 24.43 24.64 25.09 25.41 25.73 26.06 26.30 26.54 26.68 26.84 27.26 27.57 27.72 27.75 27.56 27.54 27.74 27.74 27.63 27.72 27.69 27.61 27.63 27.78 27.90 28.16 28.25 28.52 28.61 28.76 28.87 29.14 29.40 29.81 30.11 30.35 30.53 30.55 30.51 30.69 30.81 30.97 30.95 30.98 30.98 31.16 31.42 31.33 31.51 31.56 31.74 31.91 32.11 32.28 32.39 32.82 33.24 33.51 33.76 33.70
23.31 23.39 23.53 23.61 23.80 23.86 23.91 23.98 24.14 24.35 24.62 25.02 25.31 25.60 25.88 26.26 26.54 26.68 26.84 26.93 27.26 27.40 27.30 27.10 27.02 27.05 27.14 27.40 27.52 27.53 27.62 27.61 27.83 28.08 28.32 28.44 28.44 28.68 28.85 29.05 29.20 29.38 29.64 29.85 30.02 30.20 30.46 30.55 30.69 30.81 30.99 31.12 31.12 31.05 31.07 31.25 31.32 31.40 31.51 31.74 31.91 32.11 32.30 32.63 33.00 33.35 33.70 34.03 34.11
23.07 23.25 23.37 23.55 23.70 23.80 23.89 24.04 24.25 24.49 24.71 24.97 25.21 25.49 25.90 26.26 26.57 26.59 26.65 26.76 26.93 26.84 26.88 26.69 26.67 26.62 26.79 27.05 27.09 27.30 27.47 27.74 28.00 28.34 28.61 28.61 28.70 28.87 29.14 29.38 29.32 29.39 29.63 29.74 29.85 30.08 30.34 30.43 30.60 30.72 30.81 30.88 30.72 30.69 30.78 30.86 30.95 31.14 31.37 31.46 31.84 32.11 32.42 32.61 32.96 33.29 33.58 33.79 34.03
22.99 23.23 23.36 23.51 23.70 23.88 24.00 24.13 24.39 24.44 24.69 24.90 25.24 25.60 25.93 26.23 26.34 26.51 26.59 26.68 26.62 26.57 26.43 26.31 26.40 26.46 26.61 26.75 26.87 27.20 27.52 27.91 28.08 28.39 28.67 28.96 29.19 29.47 29.73 29.82 29.75 29.67 29.63 29.67 29.85 30.08 30.25 30.36 30.62 30.71 30.78 30.63 30.72 30.79 30.88 30.88 30.80 30.94 31.09 31.26 31.70 32.04 32.33 32.49 32.68 33.03 33.21 33.58 33.87
23.01 23.15 23.31 23.54 23.68 23.83 23.90 24.11 24.41 24.48 24.68 24.84 25.23 25.59 26.01 26.23 26.26 26.43 26.38 26.43 26.21 26.23 26.17 26.17 26.31 26.54 26.81 27.28 27.55 27.74 27.92 28.23 28.42 28.59 29.00 29.35 29.44 29.79 29.92 29.91 29.88 29.71 29.54 29.57 29.79 29.96 30.15 30.18 30.45 30.69 30.81 30.62 30.72 30.79 30.96 30.98 31.03 31.04 31.03 31.24 31.54 31.92 32.35 32.70 32.93 33.21 33.31 33.58 33.75
22.89 23.06 23.22 23.42 23.63 23.70 23.86 23.93 24.06 24.31 24.47 24.73 25.18 25.56 25.78 26.18 26.12 26.12 26.01 25.93 25.90 26.03 26.12 26.09 26.44 27.04 27.64 28.34 28.52 28.44 28.35 28.23 28.35 28.70 29.02 29.45 29.47 29.56 29.56 29.66 29.57 29.43 29.35 29.64 29.96 30.05 29.99 29.71 30.00 30.27 30.46 30.63 30.75 30.92 31.07 31.26 31.30 31.32 31.42 31.67 31.83 32.07 32.46 33.09 33.44 33.84 33.93 34.21 34.31
22.80 22.92 23.08 23.16 23.29 23.49 23.57 23.72 23.75 23.96 24.33 24.73 25.26 25.40 25.56 25.84 25.78 25.61 25.53 25.53 25.70 25.87 26.25 26.51 27.21 27.81 28.38 28.65 28.74 28.68 28.51 28.34 28.34 28.41 28.67 29.01 29.27 29.29 29.17 29.00 28.99 29.29 29.70 30.00 30.05 30.05 29.94 29.62 29.79 29.88 29.99 30.29 30.48 30.64 30.84 30.87 30.88 31.05 31.40 31.59 31.65 31.69 32.02 32.75 33.24 33.77 34.23 34.57 35.01
22.57 22.69 22.81 22.93 23.08 23.13 23.24 23.51 23.76 24.08 24.39 24.84 25.06 25.17 25.13 25.38 25.47 25.35 25.24 25.10 25.36 25.84 26.45 26.95 27.62 27.90 28.04 28.22 28.40 28.48 28.42 28.30 28.32 28.39 28.34 28.35 28.60 28.64 28.50 28.41 28.94 29.54 30.07 30.16 29.79 29.59 29.55 29.63 29.61 29.34 29.20 29.41 29.41 29.39 29.41 29.48 29.92 30.16 30.34 30.55 30.51 30.69 30.88 31.11 31.52 32.30 33.12 33.79 34.46
22.25 22.43 22.69 22.87 22.94 22.95 23.11 23.60 23.88 24.27 24.63 24.72 24.72 24.55 24.68 25.01 24.99 25.13 25.13 24.98 25.33 26.01 26.79 27.27 27.60 27.44 27.37 27.54 27.89 27.98 27.92 27.92 28.15 28.21 28.12 28.08 27.89 27.80 27.74 27.91 28.67 29.39 29.74 29.53 28.99 28.77 28.74 28.82 28.91 28.75 28.65 28.60 28.49 28.35 28.18 28.23 28.94 29.39 29.65 29.75 29.80 29.82 29.96 29.88 29.95 30.44 31.22 32.32 33.18
21.93 22.11 22.41 22.67 22.66 22.92 23.31 23.89 24.08 24.47 24.64 24.65 24.34 24.38 24.38 24.76 24.78 24.78 24.78 25.07 25.67 26.07 26.15 26.12 26.54 26.62 26.34 26.10 26.34 26.86 27.29 27.50 27.63 27.58 27.72 27.95 27.74 27.64 27.56 27.63 28.08 28.51 28.69 28.42 28.15 28.12 28.15 28.22 28.33 28.33 28.26 27.89 28.16 28.27 28.36 28.31 28.51 28.74 28.96 29.18 29.34 29.43 29.54 29.62 29.84 30.11 30.53 30.98 31.99
21.84 21.91 22.12 22.14 22.28 22.72 23.41 24.07 24.27 24.30 24.44 24.64 24.50 24.33 24.22 24.25 24.22 24.24 24.53 24.96 25.30 24.99 24.65 24.71 25.19 25.39 25.32 25.17 25.36 25.82 26.23 26.48 26.71 26.90 26.99 27.06 27.23 27.31 27.32 27.23 27.31 27.40 27.49 27.55 27.47 27.47 27.62 27.74 27.88 28.00 28.06 28.14 27.82 27.73 27.90 27.98 28.26 28.41 28.51 28.67 28.93 29.23 29.40 29.49 29.84 30.11 30.35 30.68 31.08
21.75 21.79 21.71 21.82 22.03 22.57 23.06 23.66 24.01 24.35 24.47 24.61 24.50 24.24 24.01 23.87 23.87 24.04 24.27 24.53 24.48 24.27 24.38 24.72 24.75 24.79 24.75 24.91 25.31 25.51 25.73 25.94 26.30 26.65 26.65 26.93 26.89 27.03 26.90 26.54 26.59 26.73 26.96 26.96 26.94 27.05 27.23 27.45 27.54 27.78 27.90 28.23 27.99 28.06 28.05 28.13 28.08 28.07 28.22 28.32 28.74 29.02 29.26 29.56 29.72 29.89 30.13 30.32 30.57
21.61 21.54 21.65 21.68 22.02 22.51 23.09 23.67 23.93 24.10 24.04 23.87 23.92 23.89 23.66 23.40 23.44 23.57 23.79 23.89 23.96 24.14 24.46 24.72 24.60 24.52 24.63 24.92 25.16 25.23 25.44 25.71 25.99 26.26 26.45 26.63 26.29 25.95 25.82 25.78 25.98 26.15 26.23 26.37 26.46 26.69 26.94 27.23 27.53 27.65 27.89 28.13 27.97 28.15 28.25 28.44 28.34 28.22 28.22 28.31 28.66 29.00 29.19 29.42 29.50 29.66 29.81 29.93 29.99
21.46 21.54 21.73 21.93 22.02 22.51 23.15 23.61 23.75 23.58 23.50 23.41 23.24 23.23 23.20 23.06 23.12 23.38 23.57 23.86 23.95 24.05 24.12 24.20 24.13 24.26 24.49 24.76 24.84 24.92 25.13 25.31 25.52 25.80 25.92 25.81 25.44 25.19 25.06 25.07 25.17 25.28 25.39 25.92 26.09 26.35 26.72 27.10 27.39 27.63 27.96 28.08 27.82 28.43 29.04 28.84 28.48 28.24 28.30 28.51 29.06 29.23 29.40 29.60 29.50 29.57 29.67 29.69 29.69
21.38 21.71 21.99 22.11 22.03 22.37 22.83 23.24 23.24 23.09 22.98 22.89 22.83 22.80 22.81 22.80 23.03 23.33 23.66 23.85 23.80 23.67 23.62 23.69 23.74 23.82 23.88 24.01 24.20 24.50 24.83 25.11 25.40 25.40 25.26 24.92 24.51 24.27 24.03 23.99 24.22 24.60 24.99 25.50 25.78 26.04 26.44 26.96 27.43 27.61 27.79 27.88 27.64 27.90 28.26 28.22 28.04 27.98 28.00 28.39 28.92 29.24 29.40 29.40 29.34 29.44 29.68 29.85 29.92
21.43 21.77 21.99 22.08 22.11 22.14 22.20 22.41 22.63 22.58 22.47 22.32 22.37 22.55 22.59 22.60 22.72 22.89 23.15 23.30 23.37 23.52 23.57 23.65 23.76 23.80 23.83 23.91 23.98 24.13 24.41 24.69 24.88 24.94 24.77 24.26 23.91 23.44 23.10 22.91 23.58 24.35 24.98 25.24 25.52 25.95 26.41 26.94 27.20 27.44 27.46 27.38 27.10 27.26 27.48 27.58 27.54 27.62 27.74 28.01 28.56 29.00 29.27 29.60 29.82 30.08 30.36 30.54 30.51
21.28 21.39 21.56 21.99 22.03 21.80 21.69 21.63 21.81 21.95 21.89 21.82 21.85 21.94 22.18 22.25 22.29 22.41 22.52 22.83 23.05 23.22 23.42 23.57 23.75 23.85 23.88 23.94 24.03 23.89 23.90 23.99 24.18 24.04 23.79 23.49 23.09 22.62 22.30 22.30 23.00 23.92 24.71 25.07 25.52 26.01 26.45 26.86 26.94 27.09 27.03 26.74 26.69 26.93 27.02 27.04 26.98 27.15 27.49 27.76 28.10 28.67 29.24 29.92 30.27 30.63 30.96 31.12 31.03
21.13 21.16 21.24 21.59 21.59 21.37 21.17 21.03 21.26 21.34 21.39 21.33 21.20 21.37 21.68 21.91 22.16 22.49 22.69 22.77 22.77 22.81 22.83 23.08 23.20 23.20 23.22 23.17 23.36 23.37 23.31 23.23 22.93 22.86 22.77 22.80 22.25 21.89 21.70 21.89 22.61 23.48 24.43 25.01 25.50 25.99 26.34 26.57 26.59 26.62 26.59 26.40 26.33 26.44 26.55 26.52 26.63 26.94 27.16 27.55 27.83 28.25 29.00 29.81 30.31 30.75 31.07 31.24 31.50
20.98 21.12 20.98 21.08 21.08 21.00 20.83 21.03 21.16 21.13 20.96 20.82 20.82 21.08 21.27 21.54 21.84 22.32 22.63 22.63 22.35 22.20 22.14 22.28 22.30 22.36 22.30 22.32 22.37 22.56 22.71 22.91 22.53 22.21 22.08 22.07 21.73 21.31 21.17 21.35 21.99 22.83 23.80 24.81 25.38 25.76 25.99 26.16 26.28 26.34 26.22 25.79 25.76 25.87 26.01 26.09 26.29 26.69 27.05 27.29 27.74 28.43 29.23 30.10 30.48 30.81 31.25 31.68 31.88
20.86 21.16 20.96 20.57 20.52 20.60 20.74 20.91 20.87 20.72 20.56 20.33 20.48 20.75 21.09 21.35 21.60 21.94 22.28 22.22 21.84 21.48 21.30 21.43 21.55 21.64 21.82 21.93 21.90 22.12 22.42 22.64 22.36 21.91 21.50 21.32 21.24 21.08 20.93 20.93 21.62 22.55 23.48 24.56 25.04 25.38 25.59 25.85 26.08 26.17 25.88 25.19 25.30 25.35 25.67 25.75 26.18 26.46 26.90 27.34 28.00 28.83 29.50 29.85 30.09 30.57 31.05 31.75 31.77
20.47 20.81 20.78 20.39 20.22 20.22 20.40 20.47 20.35 20.22 20.15 19.99 20.26 20.60 20.90 21.03 21.22 21.64 21.98 22.09 21.76 21.30 20.98 20.87 21.01 21.26 21.48 21.73 21.54 21.61 21.83 22.08 22.12 21.67 21.28 20.85 20.97 21.06 21.16 21.01 21.57 22.43 23.28 24.22 24.70 25.04 25.30 25.71 25.82 26.05 25.79 25.13 25.21 25.27 25.41 25.58 25.72 26.12 26.51 27.01 27.65 28.36 28.98 29.26 29.44 29.75 30.28 31.12 31.66
19.92 20.35 20.61 20.30 20.16 20.16 20.16 20.04 19.83 19.79 19.80 19.91 19.99 20.32 20.53 20.77 21.06 21.52 21.82 21.86 21.60 21.35 21.01 20.71 20.76 20.98 21.20 21.30 21.06 20.96 21.04 21.33 21.46 21.43 21.09 20.69 20.89 21.41 21.64 21.22 21.52 22.08 22.86 23.79 24.38 24.78 25.13 25.45 25.62 25.74 25.65 24.96 25.13 25.33 25.33 25.41 25.36 25.55 25.81 26.31 26.51 26.76 27.15 27.83 28.19 28.73 29.34 30.54 31.63
19.61 19.70 19.87 20.16 20.14 20.00 19.79 19.56 19.28 19.40 19.53 19.74 19.95 20.17 20.45 20.71 21.02 21.30 21.42 21.23 21.11 20.88 20.63 20.45 20.47 20.71 20.80 20.71 20.55 20.38 20.26 20.41 20.79 20.92 20.92 20.69 20.87 21.30 21.56 21.24 21.34 21.73 22.37 23.31 24.10 24.53 24.87 25.13 25.30 25.45 25.39 24.78 24.98 25.10 25.10 25.05 24.82 24.65 24.71 25.14 25.31 25.31 25.50 26.23 27.15 27.97 28.92 30.02 31.20
MSLP
1020.14 1020.02 1019.90 1019.86 1019.86 1019.82 1019.70 1019.58 1019.50 1019.46 1019.38 1019.26 1019.06 1018.90 1018.74 1018.58 1018.42 1018.30 1018.22 1018.14 1018.02 1017.86 1017.78 1017.70 1017.58 1017.50 1017.42 1017.30 1017.14 1016.94 1016.74 1016.58 1016.42 1016.30 1016.18 1016.06 1015.90 1015.82 1015.70 1015.66 1015.58 1015.54 1015.46 1015.42 1015.42 1015.42 1015.38 1015.30 1015.26 1015.14 1014.98 1014.86 1014.70 1014.58 1014.50 1014.42 1014.30 1014.18 1014.02 1013.86 1013.66 1013.46 1013.30 1013.10 1012.86 1012.70 1012.50 1012.30 1012.10
1020.06 1020.02 1020.02 1020.02 1020.02 1019.94 1019.78 1019.62 1019.50 1019.42 1019.34 1019.26 1019.10 1018.94 1018.78 1018.62 1018.50 1018.38 1018.26 1018.18 1018.10 1018.02 1017.90 1017.82 1017.70 1017.62 1017.50 1017.30 1017.14 1016.98 1016.74 1016.54 1016.38 1016.26 1016.14 1016.02 1015.90 1015.82 1015.70 1015.62 1015.58 1015.50 1015.50 1015.46 1015.42 1015.38 1015.30 1015.26 1015.14 1014.98 1014.86 1014.70 1014.54 1014.38 1014.30 1014.30 1014.26 1014.10 1013.90 1013.74 1013.62 1013.50 1013.34 1013.10 1012.90 1012.78 1012.66 1012.46 1012.30
1020.14 1020.14 1020.10 1020.02 1019.94 1019.86 1019.70 1019.58 1019.46 1019.38 1019.30 1019.18 1019.06 1018.94 1018.82 1018.70 1018.58 1018.42 1018.30 1018.26 1018.14 1018.14 1018.02 1017.90 1017.78 1017.66 1017.50 1017.30 1017.14 1016.98 1016.78 1016.58 1016.38 1016.22 1016.06 1015.94 1015.86 1015.74 1015.62 1015.54 1015.46 1015.42 1015.42 1015.34 1015.30 1015.26 1015.22 1015.14 1015.02 1014.86 1014.70 1014.50 1014.42 1014.26 1014.14 1014.02 1014.02 1013.86 1013.70 1013.58 1013.46 1013.38 1013.22 1012.98 1012.86 1012.74 1012.66 1012.46 1012.34
1020.22 1020.14 1020.10 1020.02 1019.94 1019.86 1019.74 1019.66 1019.54 1019.42 1019.30 1019.22 1019.10 1018.98 1018.86 1018.74 1018.58 1018.50 1018.42 1018.30 1018.26 1018.18 1018.02 1017.86 1017.70 1017.58 1017.42 1017.30 1017.10 1016.90 1016.70 1016.54 1016.38 1016.18 1016.02 1015.86 1015.74 1015.62 1015.54 1015.46 1015.34 1015.26 1015.22 1015.18 1015.14 1015.10 1015.06 1014.98 1014.86 1014.66 1014.46 1014.30 1014.18 1014.10 1013.98 1013.86 1013.82 1013.70 1013.50 1013.34 1013.26 1013.14 1012.98 1012.82 1012.70 1012.58 1012.46 1012.30 1012.18
1020.18 1020.14 1020.10 1020.06 1020.02 1019.90 1019.86 1019.74 1019.58 1019.46 1019.34 1019.30 1019.14 1018.98 1018.86 1018.74 1018.58 1018.50 1018.42 1018.30 1018.18 1018.06 1017.94 1017.82 1017.70 1017.50 1017.30 1017.14 1016.94 1016.70 1016.54 1016.42 1016.30 1016.14 1015.98 1015.78 1015.70 1015.58 1015.54 1015.42 1015.26 1015.18 1015.14 1015.10 1015.06 1015.02 1014.94 1014.86 1014.70 1014.50 1014.30 1014.14 1014.02 1013.86 1013.78 1013.74 1013.66 1013.54 1013.34 1013.22 1013.10 1012.98 1012.78 1012.62 1012.50 1012.42 1012.30 1012.14 1012.02
1020.14 1020.14 1020.14 1020.10 1020.02 1019.98 1019.86 1019.74 1019.62 1019.54 1019.42 1019.34 1019.18 1018.98 1018.86 1018.70 1018.58 1018.42 1018.30 1018.14 1018.02 1017.90 1017.86 1017.78 1017.62 1017.42 1017.22 1017.02 1016.82 1016.62 1016.42 1016.30 1016.22 1016.06 1015.90 1015.78 1015.70 1015.58 1015.50 1015.38 1015.30 1015.22 1015.18 1015.06 1014.98 1014.94 1014.86 1014.78 1014.58 1014.38 1014.14 1014.02 1013.82 1013.70 1013.66 1013.62 1013.46 1013.34 1013.18 1013.06 1012.90 1012.82 1012.70 1012.46 1012.34 1012.22 1012.10 1011.94 1011.78
1020.22 1020.18 1020.14 1020.10 1020.02 1020.02 1019.90 1019.78 1019.70 1019.58 1019.42 1019.30 1019.10 1018.90 1018.74 1018.66 1018.50 1018.38 1018.26 1018.14 1017.98 1017.86 1017.74 1017.66 1017.50 1017.30 1017.10 1016.90 1016.70 1016.54 1016.34 1016.22 1016.10 1015.98 1015.86 1015.70 1015.58 1015.46 1015.38 1015.30 1015.18 1015.14 1015.02 1014.94 1014.86 1014.78 1014.70 1014.62 1014.38 1014.10 1013.86 1013.78 1013.58 1013.46 1013.42 1013.42 1013.30 1013.14 1012.98 1012.78 1012.70 1012.58 1012.46 1012.34 1012.22 1012.10 1011.94 1011.74 1011.58
1020.30 1020.22 1020.14 1020.10 1020.02 1019.98 1019.86 1019.74 1019.62 1019.50 1019.34 1019.14 1018.94 1018.78 1018.66 1018.58 1018.42 1018.30 1018.14 1018.02 1017.86 1017.70 1017.58 1017.46 1017.30 1017.14 1016.94 1016.74 1016.58 1016.42 1016.26 1016.14 1016.02 1015.86 1015.74 1015.66 1015.46 1015.34 1015.30 1015.22 1015.14 1014.98 1014.90 1014.82 1014.70 1014.58 1014.46 1014.38 1014.14 1013.90 1013.70 1013.54 1013.38 1013.22 1013.14 1013.14 1013.06 1012.90 1012.70 1012.54 1012.42 1012.34 1012.26 1012.14 1012.10 1011.98 1011.78 1011.58 1011.42
1020.22 1020.14 1020.14 1020.06 1020.02 1019.90 1019.82 1019.70 1019.58 1019.42 1019.22 1018.98 1018.86 1018.70 1018.58 1018.42 1018.30 1018.14 1018.02 1017.86 1017.70 1017.58 1017.46 1017.30 1017.14 1016.98 1016.78 1016.58 1016.42 1016.30 1016.18 1016.02 1015.86 1015.74 1015.62 1015.54 1015.42 1015.30 1015.14 1015.06 1014.94 1014.82 1014.70 1014.66 1014.54 1014.42 1014.30 1014.14 1013.90 1013.70 1013.46 1013.34 1013.18 1013.02 1012.94 1012.94 1012.82 1012.66 1012.50 1012.38 1012.22 1012.14 1012.02 1011.98 1011.86 1011.74 1011.58 1011.42 1011.30
1020.18 1020.14 1020.10 1019.98 1019.86 1019.82 1019.74 1019.62 1019.50 1019.30 1019.14 1018.90 1018.74 1018.58 1018.46 1018.30 1018.18 1018.06 1017.86 1017.70 1017.54 1017.42 1017.26 1017.14 1016.98 1016.78 1016.58 1016.46 1016.34 1016.18 1016.06 1015.94 1015.78 1015.62 1015.50 1015.38 1015.30 1015.14 1015.02 1014.90 1014.78 1014.62 1014.50 1014.42 1014.34 1014.22 1014.06 1013.86 1013.62 1013.42 1013.26 1013.14 1013.02 1012.86 1012.78 1012.70 1012.58 1012.42 1012.26 1012.10 1011.98 1011.86 1011.74 1011.70 1011.62 1011.54 1011.38 1011.26 1011.06
1020.14 1020.10 1020.02 1019.90 1019.82 1019.70 1019.66 1019.50 1019.30 1019.14 1018.98 1018.78 1018.58 1018.42 1018.30 1018.18 1018.02 1017.86 1017.70 1017.58 1017.38 1017.18 1017.02 1016.94 1016.78 1016.62 1016.42 1016.30 1016.18 1016.06 1015.90 1015.78 1015.58 1015.42 1015.30 1015.14 1015.06 1014.94 1014.82 1014.70 1014.58 1014.42 1014.34 1014.26 1014.18 1014.02 1013.86 1013.62 1013.42 1013.26 1013.10 1012.98 1012.86 1012.74 1012.62 1012.50 1012.38 1012.18 1012.02 1011.86 1011.70 1011.58 1011.42 1011.30 1011.30 1011.26 1011.14 1010.98 1010.86
1020.14 1020.06 1019.98 1019.86 1019.74 1019.66 1019.50 1019.34 1019.14 1018.98 1018.78 1018.62 1018.42 1018.30 1018.14 1018.02 1017.86 1017.70 1017.58 1017.42 1017.22 1016.98 1016.86 1016.74 1016.62 1016.46 1016.30 1016.14 1016.02 1015.86 1015.74 1015.58 1015.42 1015.22 1015.06 1014.90 1014.78 1014.62 1014.54 1014.42 1014.30 1014.18 1014.10 1014.02 1013.98 1013.86 1013.66 1013.42 1013.26 1013.10 1012.94 1012.82 1012.70 1012.58 1012.42 1012.30 1012.14 1011.98 1011.78 1011.58 1011.42 1011.30 1011.10 1010.94 1010.94 1010.90 1010.82 1010.70 1010.58
1020.14 1020.02 1019.90 1019.78 1019.66 1019.54 1019.34 1019.14 1018.98 1018.78 1018.62 1018.42 1018.30 1018.14 1017.98 1017.82 1017.70 1017.54 1017.42 1017.22 1017.02 1016.86 1016.70 1016.62 1016.50 1016.34 1016.14 1015.98 1015.82 1015.66 1015.50 1015.34 1015.14 1014.98 1014.82 1014.62 1014.46 1014.30 1014.18 1014.10 1014.02 1013.94 1013.86 1013.74 1013.66 1013.54 1013.38 1013.14 1012.98 1012.86 1012.66 1012.50 1012.42 1012.30 1012.14 1012.02 1011.90 1011.70 1011.50 1011.34 1011.18 1010.98 1010.86 1010.70 1010.62 1010.58 1010.46 1010.34 1010.22
1020.10 1019.98 1019.82 1019.70 1019.54 1019.42 1019.22 1019.02 1018.86 1018.70 1018.46 1018.30 1018.14 1018.02 1017.86 1017.70 1017.54 1017.42 1017.30 1017.10 1016.90 1016.78 1016.62 1016.46 1016.34 1016.18 1016.02 1015.82 1015.62 1015.42 1015.30 1015.10 1014.90 1014.74 1014.58 1014.42 1014.26 1014.14 1014.02 1013.86 1013.78 1013.70 1013.58 1013.46 1013.34 1013.22 1013.06 1012.86 1012.70 1012.58 1012.38 1012.18 1012.02 1011.94 1011.86 1011.74 1011.58 1011.42 1011.26 1011.10 1010.86 1010.70 1010.58 1010.46 1010.38 1010.30 1010.14 1009.98 1009.86
1020.02 1019.90 1019.74 1019.58 1019.46 1019.30 1019.14 1018.94 1018.74 1018.58 1018.34 1018.18 1018.02 1017.86 1017.74 1017.58 1017.42 1017.34 1017.18 1016.98 1016.82 1016.70 1016.54 1016.34 1016.14 1016.02 1015.86 1015.70 1015.46 1015.30 1015.10 1014.90 1014.74 1014.58 1014.38 1014.18 1014.06 1013.98 1013.86 1013.70 1013.58 1013.46 1013.34 1013.18 1013.06 1012.90 1012.74 1012.58 1012.42 1012.26 1012.10 1011.86 1011.70 1011.62 1011.54 1011.42 1011.26 1011.06 1010.90 1010.74 1010.58 1010.42 1010.30 1010.18 1010.10 1010.02 1009.86 1009.66 1009.50
1019.94 1019.82 1019.70 1019.58 1019.38 1019.22 1019.06 1018.86 1018.66 1018.42 1018.26 1018.10 1017.94 1017.82 1017.70 1017.54 1017.38 1017.22 1017.06 1016.90 1016.70 1016.58 1016.42 1016.22 1016.02 1015.78 1015.62 1015.46 1015.30 1015.14 1014.94 1014.74 1014.58 1014.42 1014.18 1014.02 1013.86 1013.74 1013.66 1013.54 1013.34 1013.18 1013.06 1012.86 1012.70 1012.54 1012.38 1012.22 1012.06 1011.90 1011.74 1011.58 1011.42 1011.26 1011.14 1011.02 1010.86 1010.70 1010.54 1010.42 1010.26 1010.10 1009.98 1009.86 1009.78 1009.66 1009.54 1009.38 1009.22
1019.90 1019.74 1019.58 1019.42 1019.26 1019.10 1018.94 1018.74 1018.58 1018.42 1018.18 1018.02 1017.90 1017.78 1017.62 1017.46 1017.26 1017.10 1016.94 1016.78 1016.58 1016.42 1016.22 1016.02 1015.86 1015.62 1015.42 1015.22 1015.14 1014.98 1014.82 1014.62 1014.42 1014.22 1014.02 1013.86 1013.70 1013.54 1013.38 1013.26 1013.10 1012.94 1012.78 1012.62 1012.42 1012.18 1012.02 1011.86 1011.70 1011.58 1011.42 1011.26 1011.06 1010.90 1010.78 1010.66 1010.50 1010.30 1010.14 1010.02 1009.90 1009.74 1009.58 1009.50 1009.42 1009.30 1009.14 1008.98 1008.86
1019.82 1019.66 1019.50 1019.30 1019.14 1018.94 1018.82 1018.66 1018.50 1018.30 1018.14 1018.02 1017.86 1017.66 1017.50 1017.30 1017.14 1016.94 1016.74 1016.58 1016.38 1016.14 1015.94 1015.74 1015.62 1015.46 1015.30 1015.06 1014.94 1014.82 1014.66 1014.42 1014.22 1014.02 1013.82 1013.62 1013.46 1013.30 1013.14 1012.98 1012.86 1012.70 1012.50 1012.30 1012.10 1011.86 1011.70 1011.54 1011.42 1011.30 1011.14 1010.90 1010.70 1010.58 1010.42 1010.30 1010.10 1009.90 1009.74 1009.58 1009.46 1009.30 1009.22 1009.10 1008.98 1008.90 1008.74 1008.58 1008.42
1019.70 1019.50 1019.34 1019.14 1018.98 1018.82 1018.66 1018.54 1018.38 1018.18 1018.02 1017.86 1017.70 1017.50 1017.34 1017.14 1016.94 1016.70 1016.50 1016.30 1016.14 1015.94 1015.74 1015.58 1015.42 1015.26 1015.10 1014.90 1014.70 1014.58 1014.42 1014.22 1013.98 1013.74 1013.58 1013.42 1013.22 1013.02 1012.86 1012.70 1012.50 1012.38 1012.22 1012.02 1011.78 1011.58 1011.38 1011.22 1011.06 1010.94 1010.74 1010.54 1010.34 1010.14 1010.02 1009.86 1009.70 1009.46 1009.30 1009.14 1008.98 1008.86 1008.74 1008.66 1008.58 1008.46 1008.30 1008.14 1007.98
1019.54 1019.34 1019.14 1018.98 1018.86 1018.70 1018.58 1018.38 1018.22 1018.06 1017.90 1017.70 1017.54 1017.30 1017.10 1016.86 1016.70 1016.46 1016.26 1016.06 1015.90 1015.74 1015.58 1015.38 1015.18 1014.98 1014.82 1014.66 1014.46 1014.30 1014.10 1013.94 1013.70 1013.42 1013.26 1013.10 1012.90 1012.70 1012.54 1012.38 1012.18 1012.02 1011.86 1011.66 1011.42 1011.22 1011.06 1010.86 1010.70 1010.54 1010.38 1010.14 1009.94 1009.74 1009.58 1009.42 1009.26 1009.06 1008.86 1008.70 1008.58 1008.42 1008.30 1008.18 1008.10 1008.02 1007.86 1007.70 1007.58
1019.38 1019.18 1019.02 1018.86 1018.70 1018.58 1018.42 1018.26 1018.10 1017.90 1017.70 1017.50 1017.30 1017.06 1016.86 1016.62 1016.42 1016.26 1016.06 1015.86 1015.70 1015.58 1015.38 1015.14 1014.98 1014.74 1014.54 1014.34 1014.14 1013.98 1013.78 1013.58 1013.42 1013.14 1012.94 1012.74 1012.58 1012.38 1012.18 1012.02 1011.86 1011.66 1011.46 1011.30 1011.10 1010.86 1010.70 1010.50 1010.30 1010.14 1010.02 1009.82 1009.58 1009.38 1009.18 1009.02 1008.82 1008.58 1008.42 1008.30 1008.10 1007.94 1007.82 1007.74 1007.62 1007.50 1007.42 1007.30 1007.14
1019.26 1019.10 1018.94 1018.78 1018.58 1018.42 1018.26 1018.10 1017.90 1017.70 1017.50 1017.30 1017.02 1016.82 1016.62 1016.42 1016.22 1016.02 1015.86 1015.70 1015.54 1015.34 1015.14 1014.90 1014.70 1014.50 1014.30 1014.06 1013.86 1013.66 1013.42 1013.26 1013.06 1012.86 1012.66 1012.42 1012.22 1012.02 1011.86 1011.70 1011.46 1011.26 1011.10 1010.90 1010.70 1010.54 1010.34 1010.14 1009.98 1009.82 1009.62 1009.42 1009.22 1008.98 1008.82 1008.66 1008.42 1008.18 1008.02 1007.78 1007.62 1007.46 1007.34 1007.26 1007.14 1007.02 1006.94 1006.82 1006.70
1019.14 1018.98 1018.86 1018.66 1018.46 1018.30 1018.14 1017.90 1017.70 1017.50 1017.26 1017.02 1016.82 1016.58 1016.38 1016.18 1016.02 1015.86 1015.66 1015.50 1015.30 1015.14 1014.90 1014.70 1014.50 1014.30 1014.06 1013.86 1013.62 1013.38 1013.14 1012.90 1012.70 1012.50 1012.30 1012.10 1011.86 1011.70 1011.50 1011.30 1011.14 1010.90 1010.70 1010.54 1010.38 1010.18 1010.02 1009.78 1009.58 1009.42 1009.30 1009.10 1008.86 1008.62 1008.42 1008.26 1008.02 1007.82 1007.58 1007.30 1007.14 1006.98 1006.86 1006.74 1006.62 1006.54 1006.42 1006.34 1006.30
1019.06 1018.86 1018.70 1018.54 1018.30 1018.14 1017.94 1017.74 1017.54 1017.30 1017.02 1016.78 1016.58 1016.38 1016.14 1015.98 1015.82 1015.66 1015.46 1015.30 1015.10 1014.90 1014.70 1014.46 1014.26 1014.02 1013.78 1013.54 1013.30 1013.10 1012.86 1012.58 1012.38 1012.14 1011.94 1011.74 1011.54 1011.34 1011.14 1011.02 1010.82 1010.58 1010.38 1010.18 1010.02 1009.86 1009.70 1009.50 1009.30 1009.14 1008.94 1008.78 1008.54 1008.30 1008.10 1007.86 1007.62 1007.38 1007.14 1006.90 1006.70 1006.50 1006.34 1006.22 1006.10 1006.02 1005.86 1005.78 1005.70
1018.94 1018.78 1018.58 1018.42 1018.22 1018.02 1017.78 1017.58 1017.30 1017.06 1016.82 1016.58 1016.38 1016.14 1015.98 1015.82 1015.62 1015.46 1015.30 1015.06 1014.86 1014.66 1014.42 1014.22 1013.98 1013.70 1013.46 1013.22 1012.98 1012.78 1012.58 1012.30 1012.06 1011.82 1011.58 1011.42 1011.26 1011.10 1010.90 1010.70 1010.50 1010.30 1010.02 1009.86 1009.70 1009.58 1009.42 1009.30 1009.14 1008.90 1008.70 1008.50 1008.30 1008.02 1007.86 1007.58 1007.34 1007.14 1006.90 1006.62 1006.38 1006.14 1005.94 1005.74 1005.58 1005.50 1005.42 1005.30 1005.18
1018.86 1018.70 1018.46 1018.30 1018.10 1017.86 1017.62 1017.42 1017.14 1016.86 1016.62 1016.42 1016.18 1015.98 1015.82 1015.66 1015.50 1015.30 1015.06 1014.86 1014.62 1014.42 1014.18 1013.98 1013.70 1013.42 1013.18 1012.98 1012.70 1012.46 1012.26 1012.02 1011.82 1011.58 1011.34 1011.14 1010.98 1010.82 1010.62 1010.42 1010.22 1009.98 1009.74 1009.58 1009.42 1009.30 1009.22 1009.10 1008.94 1008.82 1008.62 1008.38 1008.14 1007.86 1007.66 1007.38 1007.14 1006.94 1006.70 1006.46 1006.22 1006.02 1005.74 1005.46 1005.30 1005.14 1005.06 1004.98 1004.82
1018.74 1018.58 1018.34 1018.14 1017.98 1017.70 1017.46 1017.18 1016.94 1016.70 1016.42 1016.22 1016.02 1015.86 1015.70 1015.50 1015.30 1015.10 1014.86 1014.62 1014.42 1014.18 1013.94 1013.70 1013.42 1013.18 1012.98 1012.74 1012.42 1012.22 1012.02 1011.78 1011.58 1011.38 1011.14 1010.94 1010.74 1010.58 1010.34 1010.14 1009.90 1009.70 1009.54 1009.34 1009.22 1009.14 1009.02 1008.90 1008.78 1008.66 1008.46 1008.26 1007.98 1007.70 1007.42 1007.14 1006.86 1006.66 1006.42 1006.18 1005.94 1005.70 1005.42 1005.22 1004.98 1004.86 1004.74 1004.62 1004.50
1018.66 1018.46 1018.26 1018.02 1017.78 1017.54 1017.30 1017.02 1016.78 1016.50 1016.30 1016.10 1015.90 1015.70 1015.54 1015.34 1015.14 1014.90 1014.70 1014.42 1014.22 1013.98 1013.70 1013.46 1013.26 1013.02 1012.74 1012.50 1012.30 1012.06 1011.86 1011.58 1011.38 1011.14 1010.94 1010.74 1010.54 1010.30 1010.10 1009.86 1009.66 1009.46 1009.30 1009.18 1009.06 1008.98 1008.86 1008.70 1008.58 1008.42 1008.22 1008.02 1007.78 1007.46 1007.14 1006.82 1006.54 1006.30 1006.06 1005.82 1005.50 1005.30 1005.06 1004.86 1004.62 1004.46 1004.34 1004.22 1004.14
1018.50 1018.30 1018.06 1017.86 1017.58 1017.34 1017.10 1016.86 1016.62 1016.38 1016.14 1015.98 1015.78 1015.58 1015.42 1015.18 1014.94 1014.70 1014.50 1014.30 1014.02 1013.78 1013.54 1013.30 1013.06 1012.82 1012.58 1012.34 1012.10 1011.86 1011.62 1011.42 1011.18 1010.98 1010.74 1010.54 1010.30 1010.06 1009.86 1009.66 1009.46 1009.30 1009.14 1009.02 1008.94 1008.82 1008.62 1008.46 1008.30 1008.10 1007.94 1007.74 1007.54 1007.22 1006.86 1006.54 1006.26 1005.98 1005.70 1005.38 1005.14 1004.86 1004.58 1004.38 1004.18 1004.02 1003.86 1003.70 1003.58
1018.38 1018.14 1017.94 1017.70 1017.42 1017.18 1016.94 1016.70 1016.42 1016.22 1016.02 1015.86 1015.66 1015.46 1015.26 1015.02 1014.78 1014.58 1014.30 1014.10 1013.86 1013.62 1013.38 1013.14 1012.86 1012.62 1012.38 1012.14 1011.86 1011.62 1011.38 1011.14 1010.98 1010.74 1010.54 1010.30 1010.06 1009.86 1009.66 1009.50 1009.30 1009.14 1009.02 1008.94 1008.78 1008.62 1008.42 1008.22 1008.02 1007.82 1007.58 1007.42 1007.22 1006.94 1006.58 1006.26 1005.90 1005.58 1005.30 1004.98 1004.70 1004.46 1004.26 1004.02 1003.78 1003.62 1003.46 1003.30 1003.14
1018.30 1018.06 1017.82 1017.54 1017.30 1017.02 1016.78 1016.58 1016.30 1016.10 1015.94 1015.74 1015.54 1015.30 1015.10 1014.86 1014.58 1014.34 1014.14 1013.86 1013.66 1013.42 1013.18 1012.94 1012.70 1012.42 1012.18 1011.90 1011.70 1011.42 1011.14 1010.90 1010.70 1010.58 1010.34 1010.14 1009.90 1009.70 1009.58 1009.42 1009.22 1009.02 1008.90 1008.74 1008.58 1008.42 1008.18 1007.94 1007.70 1007.46 1007.26 1007.10 1006.90 1006.58 1006.26 1005.86 1005.54 1005.22 1004.90 1004.58 1004.30 1004.06 1003.86 1003.70 1003.46 1003.30 1003.10 1002.98 1002.86
1018.14 1017.90 1017.62 1017.34 1017.10 1016.86 1016.62 1016.42 1016.22 1016.02 1015.82 1015.58 1015.38 1015.14 1014.94 1014.70 1014.46 1014.22 1013.98 1013.74 1013.50 1013.26 1012.98 1012.70 1012.50 1012.22 1011.98 1011.70 1011.50 1011.26 1010.98 1010.78 1010.58 1010.38 1010.22 1010.02 1009.82 1009.58 1009.42 1009.26 1009.10 1008.94 1008.78 1008.58 1008.38 1008.14 1007.90 1007.66 1007.42 1007.18 1006.94 1006.74 1006.50 1006.18 1005.86 1005.50 1005.14 1004.86 1004.50 1004.22 1003.98 1003.74 1003.58 1003.38 1003.14 1002.90 1002.74 1002.58 1002.46
1018.02 1017.74 1017.46 1017.18 1016.94 1016.70 1016.50 1016.30 1016.14 1015.94 1015.70 1015.46 1015.26 1015.02 1014.82 1014.58 1014.30 1014.10 1013.86 1013.62 1013.38 1013.14 1012.86 1012.58 1012.34 1012.10 1011.82 1011.58 1011.34 1011.10 1010.86 1010.66 1010.46 1010.30 1010.14 1009.94 1009.78 1009.54 1009.34 1009.14 1008.98 1008.82 1008.62 1008.42 1008.14 1007.86 1007.62 1007.38 1007.14 1006.86 1006.62 1006.38 1006.18 1005.86 1005.50 1005.14 1004.82 1004.46 1004.14 1003.82 1003.54 1003.30 1003.10 1002.90 1002.70 1002.46 1002.30 1002.14 1002.02
1017.86 1017.58 1017.30 1017.02 1016.82 1016.58 1016.38 1016.22 1016.02 1015.82 1015.58 1015.30 1015.14 1014.90 1014.70 1014.42 1014.18 1013.94 1013.70 1013.50 1013.30 1013.02 1012.74 1012.50 1012.26 1012.02 1011.74 1011.54 1011.30 1011.02 1010.78 1010.62 1010.42 1010.22 1010.02 1009.86 1009.66 1009.46 1009.26 1009.06 1008.86 1008.66 1008.42 1008.14 1007.86 1007.62 1007.38 1007.10 1006.82 1006.58 1006.34 1006.10 1005.82 1005.46 1005.10 1004.70 1004.38 1004.02 1003.70 1003.34 1003.06 1002.82 1002.58 1002.42 1002.22 1002.02 1001.78 1001.66 1001.54
1017.78 1017.46 1017.18 1016.94 1016.70 1016.50 1016.30 1016.14 1015.94 1015.70 1015.46 1015.22 1014.98 1014.78 1014.58 1014.30 1014.06 1013.82 1013.58 1013.38 1013.14 1012.94 1012.70 1012.42 1012.22 1011.98 1011.70 1011.46 1011.26 1010.98 1010.74 1010.58 1010.38 1010.18 1009.98 1009.82 1009.62 1009.38 1009.14 1008.90 1008.66 1008.42 1008.14 1007.90 1007.62 1007.34 1007.10 1006.86 1006.58 1006.34 1006.06 1005.78 1005.46 1005.10 1004.70 1004.30 1003.94 1003.58 1003.26 1002.94 1002.62 1002.34 1002.14 1001.94 1001.70 1001.46 1001.26 1001.10 1000.90
1017.70 1017.42 1017.14 1016.86 1016.62 1016.42 1016.26 1016.06 1015.82 1015.58 1015.34 1015.14 1014.90 1014.66 1014.42 1014.14 1013.94 1013.70 1013.50 1013.30 1013.10 1012.86 1012.58 1012.34 1012.10 1011.86 1011.58 1011.34 1011.14 1010.94 1010.70 1010.46 1010.26 1010.06 1009.90 1009.74 1009.58 1009.30 1009.02 1008.70 1008.42 1008.18 1007.94 1007.70 1007.42 1007.14 1006.86 1006.62 1006.38 1006.10 1005.82 1005.46 1005.14 1004.74 1004.38 1004.02 1003.58 1003.22 1002.86 1002.58 1002.18 1001.90 1001.66 1001.42 1001.14 1000.90 1000.66 1000.46 1000.26
1017.70 1017.42 1017.14 1016.86 1016.58 1016.38 1016.18 1015.98 1015.70 1015.46 1015.26 1015.02 1014.86 1014.58 1014.34 1014.10 1013.90 1013.70 1013.46 1013.30 1012.98 1012.74 1012.54 1012.30 1012.02 1011.78 1011.54 1011.30 1011.10 1010.90 1010.70 1010.42 1010.22 1010.02 1009.82 1009.70 1009.46 1009.18 1008.86 1008.58 1008.30 1008.02 1007.74 1007.50 1007.22 1006.90 1006.62 1006.42 1006.14 1005.86 1005.58 1005.26 1004.86 1004.46 1004.10 1003.70 1003.30 1002.86 1002.46 1002.10 1001.70 1001.42 1001.14 1000.86 1000.58 1000.30 1000.02 999.82 999.58
1017.66 1017.42 1017.14 1016.86 1016.58 1016.34 1016.14 1015.90 1015.66 1015.42 1015.22 1015.02 1014.78 1014.54 1014.30 1014.10 1013.86 1013.62 1013.42 1013.30 1012.98 1012.70 1012.46 1012.22 1011.98 1011.74 1011.50 1011.30 1011.10 1010.86 1010.62 1010.42 1010.18 1009.94 1009.70 1009.54 1009.34 1009.10 1008.78 1008.42 1008.14 1007.86 1007.58 1007.30 1006.98 1006.70 1006.46 1006.22 1005.94 1005.70 1005.42 1005.06 1004.70 1004.30 1003.82 1003.38 1002.94 1002.54 1002.10 1001.70 1001.26 1000.90 1000.62 1000.38 1000.10 999.78 999.46 999.18 998.98
1017.62 1017.42 1017.14 1016.86 1016.62 1016.38 1016.10 1015.86 1015.66 1015.42 1015.26 1015.02 1014.74 1014.54 1014.34 1014.14 1013.86 1013.62 1013.42 1013.26 1013.02 1012.74 1012.42 1012.18 1011.94 1011.70 1011.54 1011.30 1011.02 1010.78 1010.54 1010.30 1010.10 1009.90 1009.70 1009.42 1009.26 1008.98 1008.70 1008.30 1007.94 1007.66 1007.42 1007.14 1006.86 1006.58 1006.34 1006.06 1005.82 1005.54 1005.22 1004.90 1004.50 1004.06 1003.58 1003.14 1002.66 1002.18 1001.78 1001.42 1000.98 1000.62 1000.30 1000.10 999.78 999.42 999.02 998.66 998.38
1017.58 1017.42 1017.14 1016.90 1016.62 1016.34 1016.06 1015.86 1015.66 1015.46 1015.30 1015.06 1014.78 1014.58 1014.34 1014.14 1013.86 1013.66 1013.42 1013.26 1012.98 1012.74 1012.46 1012.22 1011.98 1011.74 1011.50 1011.26 1010.98 1010.70 1010.42 1010.22 1010.02 1009.82 1009.58 1009.38 1009.10 1008.86 1008.54 1008.18 1007.86 1007.54 1007.30 1007.02 1006.74 1006.50 1006.22 1005.94 1005.66 1005.34 1005.06 1004.70 1004.30 1003.86 1003.42 1002.90 1002.42 1002.02 1001.58 1001.22 1000.86 1000.54 1000.18 999.86 999.54 999.14 998.70 998.22 997.82
1017.54 1017.38 1017.14 1016.86 1016.58 1016.30 1016.06 1015.86 1015.70 1015.54 1015.34 1015.10 1014.86 1014.58 1014.34 1014.14 1013.86 1013.66 1013.42 1013.26 1013.02 1012.78 1012.54 1012.26 1012.02 1011.74 1011.50 1011.22 1010.94 1010.66 1010.38 1010.14 1009.90 1009.70 1009.50 1009.26 1008.98 1008.66 1008.38 1008.06 1007.74 1007.46 1007.18 1006.90 1006.66 1006.38 1006.10 1005.82 1005.50 1005.22 1004.90 1004.58 1004.14 1003.70 1003.22 1002.74 1002.26 1001.86 1001.46 1001.14 1000.82 1000.46 1000.06 999.62 999.22 998.78 998.30 997.86 997.38
Wind_Speed
7 6 6 5 5 5 6 6 6 6 6 6 7 7 7 7 7 7 7 7 7 7 7 7 8 8 9 11 12 13 13 13 13 13 13 14 14 14 14 14 13 13 13 13 12 12 11 11 10 9 8 8 9 9 9 9 10 11 11 11 11 11 12 13 13 14 15 16 14
8 7 7 6 6 6 6 6 6 6 6 6 7 7 7 7 7 7 8 8 7 7 8 8 8 10 11 13 13 13 13 13 14 14 14 14 15 14 14 14 13 13 13 13 13 11 10 11 10 9 8 8 9 9 9 9 9 11 12 13 11 11 11 12 13 14 15 15 14
8 7 7 7 7 7 6 6 7 7 8 8 7 7 7 7 7 7 7 8 8 9 8 8 9 10 12 13 13 12 13 13 14 14 14 14 14 15 14 13 14 14 13 13 12 11 11 11 10 9 9 8 9 10 10 10 10 11 12 13 11 10 9 10 11 11 11 11 13
8 7 7 8 9 9 8 7 8 9 9 8 8 8 8 8 7 7 8 9 10 10 9 9 9 10 11 12 13 13 13 14 15 15 15 14 15 15 15 15 15 15 14 14 13 13 13 13 11 9 9 10 11 11 10 9 11 11 11 10 10 10 10 9 10 9 9 10 11
8 7 7 7 9 9 9 9 10 10 9 8 8 8 8 7 7 8 8 9 9 9 10 11 11 10 11 12 14 15 15 15 15 14 14 15 15 15 15 16 16 15 14 14 14 14 14 14 11 10 10 11 10 10 10 11 12 11 11 9 9 9 9 9 9 9 9 9 9
8 8 8 8 9 9 9 9 10 10 9 8 9 9 9 8 8 8 9 9 10 11 12 13 12 12 12 14 15 15 15 14 14 13 14 14 14 15 15 16 16 15 15 14 15 15 15 14 11 10 10 10 10 11 12 13 13 12 11 10 10 9 10 10 9 9 9 10 11
9 9 9 9 10 10 10 10 10 10 10 9 11 11 11 11 11 12 12 12 12 12 12 11 11 12 12 13 14 14 13 13 13 14 14 14 14 15 15 15 16 16 16 15 15 15 14 13 11 10 10 10 9 11 12 13 13 12 12 12 10 10 10 11 10 10 11 13 14
9 9 10 10 10 10 11 11 11 10 10 9 11 12 13 14 14 14 14 13 12 11 11 10 12 13 13 13 13 13 14 14 14 14 14 15 16 16 16 16 16 16 16 16 15 15 14 13 11 10 10 10 9 10 12 14 14 14 14 14 12 10 10 10 10 11 12 15 16
9 9 10 10 10 11 11 12 12 12 12 12 12 13 14 14 15 15 14 13 12 11 11 11 12 14 14 14 14 14 14 14 14 15 15 15 16 16 16 16 16 16 16 15 15 16 16 13 11 11 10 10 10 11 12 14 16 16 16 14 13 12 12 12 12 13 14 16 17
10 10 10 10 11 11 12 12 12 13 13 14 14 14 14 14 14 14 13 11 11 11 12 12 13 14 14 15 15 14 14 14 14 15 15 15 15 16 16 15 15 16 15 15 15 15 15 13 12 12 12 12 13 14 15 15 17 17 16 14 14 15 16 15 15 16 16 16 17
11 11 11 11 12 12 12 13 12 12 12 13 14 14 14 14 14 13 12 12 12 13 14 13 14 14 14 14 14 14 14 14 14 14 15 15 16 16 16 16 16 16 16 16 15 14 13 12 13 14 15 15 15 15 16 17 18 18 18 16 16 17 18 18 17 17 16 17 18
12 12 12 12 12 13 13 13 12 12 12 13 13 13 13 13 13 13 13 14 14 15 14 14 14 14 14 13 13 13 14 14 15 15 16 16 17 17 17 17 17 18 18 18 16 14 13 14 15 16 18 18 15 14 15 18 19 19 19 19 19 19 19 19 18 17 16 16 18
13 13 13 13 13 13 13 13 12 11 12 13 13 13 12 12 13 14 14 14 14 14 13 13 14 14 14 14 14 14 14 15 16 16 16 17 17 17 18 18 18 18 18 18 16 15 14 15 17 18 19 19 16 15 16 18 19 19 20 20 20 20 20 20 19 18 18 18 19
13 13 13 13 13 13 13 12 11 11 12 13 13 12 12 12 13 13 13 14 14 13 13 13 13 13 14 15 15 16 16 16 16 17 18 18 18 18 18 18 18 18 18 16 16 16 17 17 18 19 19 19 19 18 19 19 19 19 20 20 20 20 20 20 19 19 19 20 20
13 13 13 13 13 13 12 12 11 11 11 12 12 12 12 11 12 12 12 13 14 14 13 13 13 13 15 16 17 17 17 17 17 18 18 19 19 18 18 18 18 18 17 17 17 17 18 19 20 20 20 20 20 20 20 20 20 20 20 20 20 20 20 19 19 19 19 20 21
13 13 13 13 13 12 12 11 10 10 11 12 12 12 12 11 11 12 12 13 13 12 13 14 14 14 14 15 16 17 17 17 17 18 18 18 18 18 18 18 18 18 18 19 19 19 19 19 19 20 20 20 20 20 20 20 20 21 21 21 21 21 20 20 19 19 20 20 21
13 13 13 13 13 13 12 12 11 11 11 12 13 13 12 12 11 12 12 13 12 13 14 15 15 15 15 15 15 16 16 16 16 17 17 18 18 18 18 18 19 19 19 20 20 20 20 20 19 19 20 21 21 20 20 20 20 21 21 21 21 21 21 20 20 20 20 21 21
13 13 13 13 13 13 13 13 12 12 13 14 14 13 13 12 13 13 13 13 14 15 16 16 16 15 16 16 15 15 15 15 16 17 17 18 18 19 19 19 19 19 19 20 20 21 21 21 20 20 20 20 20 20 20 20 20 21 21 22 22 21 21 21 20 20 20 21 21
13 13 13 13 13 13 13 14 14 14 14 14 14 14 14 14 14 14 14 14 15 15 16 17 16 16 16 17 17 16 15 15 17 18 18 18 18 19 19 19 19 19 20 20 20 21 21 21 20 20 20 20 20 20 20 21 21 21 21 22 22 21 21 21 21 21 20 21 21
13 13 13 13 13 14 14 14 14 14 14 14 14 15 15 15 15 15 15 15 15 16 16 17 17 16 17 17 17 17 16 15 16 18 18 18 18 19 19 19 19 20 20 20 20 20 20 20 20 20 21 21 21 21 21 21 21 22 21 21 21 21 21 21 21 21 21 22 22
13 13 13 13 14 14 14 14 14 14 15 15 15 16 16 16 15 15 16 16 16 16 16 17 17 17 17 17 18 17 17 15 16 17 18 18 18 19 19 19 19 19 18 18 19 19 20 20 20 20 20 20 21 21 21 21 21 21 21 20 20 20 21 21 21 22 22 22 22
14 13 14 14 14 14 14 14 14 15 15 15 15 16 16 15 15 15 16 16 16 16 16 17 17 17 17 17 18 17 17 15 16 17 17 17 18 18 18 17 18 18 19 19 19 19 19 20 20 20 20 20 20 21 21 21 21 21 21 21 21 21 21 22 22 22 22 22 22
14 14 14 13 14 14 15 15 15 15 15 15 15 15 15 15 15 15 16 16 16 16 16 16 16 16 17 17 18 18 18 17 17 17 17 17 18 18 18 17 18 18 18 17 17 18 18 18 18 18 19 18 19 20 20 20 20 20 20 21 22 22 22 22 22 22 22 22 22
14 14 13 12 14 14 15 15 15 15 15 15 15 15 15 15 15 15 16 16 16 16 16 15 15 16 17 18 18 18 18 18 18 18 18 18 18 18 17 17 17 17 17 15 15 16 16 15 15 15 16 16 16 17 17 18 18 18 19 20 20 20 20 20 21 21 21 22 22
15 14 14 14 14 15 15 15 15 15 15 15 15 15 15 15 15 15 15 16 16 16 17 17 16 16 16 16 17 17 17 17 18 18 18 18 17 17 17 15 15 14 14 14 17 19 20 18 15 14 13 13 14 15 16 16 17 18 18 19 19 19 19 20 20 21 21 21 21
15 15 15 15 15 15 15 16 16 16 15 15 15 15 15 15 15 15 16 16 16 16 17 17 16 16 15 15 16 16 16 16 16 17 17 17 18 18 17 15 14 12 12 14 18 20 21 22 21 18 16 14 14 15 16 16 17 19 19 20 20 20 20 20 20 20 20 20 20
14 15 15 15 15 16 16 16 16 16 16 15 15 15 15 15 15 15 16 16 16 16 16 16 15 15 14 14 15 16 16 15 15 16 17 18 18 18 17 16 14 12 12 16 19 21 22 22 23 23 21 17 16 16 16 16 17 18 19 20 20 20 20 21 21 21 21 21 21
14 15 15 16 16 16 16 16 16 16 16 16 16 15 15 16 16 16 16 16 16 16 15 13 13 12 11 11 13 14 16 16 16 16 16 17 18 18 17 16 14 14 15 18 21 22 23 23 24 24 23 20 17 16 16 17 17 17 17 17 18 19 20 21 20 20 20 21 21
15 15 16 16 16 16 16 16 16 16 16 16 16 16 16 16 16 16 16 16 16 15 13 11 11 10 10 12 13 15 16 16 16 15 15 16 17 17 17 17 16 16 17 20 21 22 23 24 24 25 24 23 18 15 13 14 14 15 15 15 16 17 18 18 18 18 19 20 20
15 16 16 16 16 16 16 16 16 16 16 15 15 15 16 16 16 16 16 16 15 14 13 12 12 12 13 14 14 15 15 15 14 15 16 17 17 17 17 17 16 16 17 20 22 23 23 24 24 24 24 24 21 17 14 14 14 15 15 15 16 18 19 20 20 20 20 19 19
16 16 16 16 16 16 16 16 16 16 16 15 15 16 15 15 15 15 15 15 14 14 14 14 15 15 16 16 15 15 15 15 15 15 16 17 17 17 17 17 17 17 17 20 21 23 23 24 24 24 24 25 21 17 15 15 15 15 15 15 17 19 20 20 20 20 21 21 21
16 16 16 16 16 16 16 16 16 16 16 16 16 16 15 15 15 15 14 14 14 15 15 15 16 16 16 16 16 16 16 16 16 16 16 16 17 17 17 17 16 16 17 20 21 22 23 24 24 24 24 24 21 19 17 17 17 16 17 18 20 21 21 19 19 20 22 23 22
16 17 17 16 16 16 16 16 16 16 16 16 16 15 15 15 15 14 14 13 13 14 15 15 16 16 16 16 16 16 16 16 16 17 17 17 17 17 17 16 14 15 17 20 22 23 23 24 24 24 24 24 21 18 17 17 16 15 16 17 19 21 22 22 21 22 23 24 23
17 17 17 17 16 16 16 16 16 16 16 16 15 15 15 14 14 14 14 13 13 13 14 14 15 15 15 15 16 16 16 15 16 17 17 17 17 17 17 15 12 13 17 21 22 23 23 23 23 23 24 23 19 17 16 17 16 16 16 18 19 20 21 22 23 23 24 24 23
17 17 17 17 16 16 16 16 16 16 16 16 15 15 15 14 14 14 13 13 13 13 14 14 14 14 15 15 15 16 16 16 16 16 16 16 16 17 17 16 14 16 19 22 22 23 23 23 23 23 23 21 16 15 15 17 17 17 18 19 20 21 21 22 22 23 23 24 25
17 17 17 17 17 16 16 16 16 16 16 16 15 15 14 14 14 13 13 13 14 14 14 14 14 15 15 15 15 15 16 16 16 16 15 15 16 16 17 17 16 18 20 21 22 22 22 22 23 23 22 19 14 13 13 14 14 16 18 19 20 21 22 22 22 22 22 23 24
16 17 17 17 17 17 16 16 16 16 16 15 15 15 14 14 13 13 12 13 13 14 14 14 15 15 15 16 15 16 16 16 16 16 15 15 15 16 16 17 17 17 19 20 21 22 22 22 23 23 21 17 14 13 13 13 13 14 16 18 19 20 20 19 19 20 21 22 23
16 16 16 17 17 17 16 16 16 16 16 15 15 14 14 13 13 12 12 12 12 13 14 14 15 15 16 16 16 16 16 16 16 15 15 15 15 15 16 17 17 16 17 19 20 22 22 23 23 23 21 16 15 14 13 12 13 13 14 15 16 17 17 16 15 16 18 21 23
15 16 16 16 16 17 16 16 16 15 15 15 14 14 14 13 12 11 11 12 12 13 14 14 15 16 16 17 16 16 15 15 15 15 15 14 15 16 17 17 16 16 16 18 20 22 22 23 23 23 22 17 15 13 12 11 13 14 14 14 14 15 15 15 14 15 16 20 25
14 15 15 16 16 16 16 15 15 14 14 13 14 13 13 13 12 12 12 11 12 13 14 14 15 16 16 16 16 15 15 15 15 15 15 15 15 17 17 16 16 16 17 18 20 22 22 23 23 23 22 17 14 12 11 11 12 13 13 12 12 12 13 14 14 14 15 18 21
13 14 14 15 15 15 15 15 14 14 13 13 13 13 12 12 12 12 12 11 13 13 13 13 15 16 17 16 15 14 15 15 15 15 15 16 16 16 16 15 15 16 16 17 20 21 22 22 23 23 22 17 14 12 11 10 11 12 13 13 12 12 12 13 13 14 14 15 16
Wind_Direction
291 293 296 300 300 297 293 288 285 282 280 278 278 278 278 278 278 279 280 280 280 281 282 282 282 283 285 287 288 289 289 289 288 288 287 286 285 284 283 282 282 281 280 280 278 277 274 272 270 268 266 264 264 263 262 262 263 263 263 262 263 265 266 265 265 264 264 263 264
297 298 298 296 289 284 281 280 278 275 274 273 275 278 279 280 280 281 281 280 280 282 282 282 282 283 284 286 288 289 289 289 289 289 287 285 284 283 282 281 280 279 279 278 277 276 274 272 270 268 265 263 262 261 259 256 256 257 257 257 258 259 260 260 259 259 260 261 261
297 296 294 289 285 284 284 284 283 282 281 281 282 283 283 282 281 280 280 280 281 281 281 280 280 281 283 285 286 287 287 287 288 287 286 284 283 282 281 280 279 278 276 274 272 271 269 269 267 265 263 261 261 261 260 258 256 255 255 254 253 253 253 254 254 254 254 254 254
293 291 289 288 288 288 289 288 288 287 287 287 287 285 283 281 280 279 279 279 278 277 275 276 278 280 281 283 283 283 283 283 284 284 284 283 282 282 281 280 279 278 277 275 274 272 271 270 268 265 262 261 261 260 259 259 258 257 257 255 253 252 251 251 250 250 249 250 249
292 290 289 289 289 289 288 286 286 287 287 288 287 284 281 279 277 276 274 273 272 272 274 278 280 282 282 283 283 283 284 284 284 284 284 283 283 283 283 282 281 281 281 280 278 276 275 273 271 268 265 263 261 259 258 258 258 258 257 256 254 253 252 252 250 249 248 249 247
295 293 292 290 291 290 288 287 287 287 287 285 282 279 278 276 276 276 276 276 277 279 281 282 283 283 284 284 284 284 284 284 283 283 282 283 283 282 282 281 281 280 279 277 276 275 273 272 269 266 263 263 261 259 258 257 257 256 255 254 252 252 252 252 252 251 250 249 248
297 296 294 293 292 291 289 288 287 285 283 280 277 276 276 277 277 279 280 281 282 282 282 282 281 281 282 283 283 283 283 284 283 283 282 282 281 281 281 280 280 278 277 276 275 274 272 270 267 265 262 260 260 258 256 254 254 254 253 252 251 250 250 251 251 251 251 250 250
296 295 294 294 292 290 288 287 287 285 283 280 279 279 279 279 280 281 281 281 280 280 281 280 280 280 281 282 282 283 283 284 283 283 282 282 282 282 282 281 280 279 278 277 276 274 272 270 267 265 264 261 260 258 256 253 252 252 253 252 252 250 249 249 249 250 251 251 251
297 296 296 295 293 291 290 290 289 287 285 283 282 282 282 282 283 283 282 281 281 281 282 281 281 282 282 282 283 283 284 284 283 282 282 281 281 281 281 280 279 278 276 275 274 273 271 269 266 264 262 262 261 260 258 255 254 253 252 252 252 251 249 249 249 250 251 252 252
301 301 300 298 296 295 295 293 290 288 286 284 284 283 284 284 284 284 283 283 284 284 283 282 283 284 284 284 284 283 283 282 281 280 280 279 278 278 278 277 276 276 275 274 273 272 271 269 266 264 263 263 263 263 262 259 257 255 254 252 251 251 250 249 249 250 251 252 252
304 303 302 300 300 299 297 295 292 289 288 286 286 286 286 285 285 284 285 286 285 284 284 284 285 285 284 284 283 282 281 280 279 278 278 277 276 275 275 275 275 275 275 275 274 273 271 269 268 267 266 265 264 264 263 262 260 259 257 255 254 252 251 250 249 249 250 251 251
306 305 303 301 301 299 297 295 293 291 289 288 288 288 287 286 286 287 287 287 286 286 286 286 286 285 284 283 282 280 279 278 278 277 277 276 275 275 275 275 276 276 276 275 274 272 270 268 268 267 267 265 264 263 262 262 261 260 259 258 257 255 254 252 250 248 248 248 250
307 305 303 301 300 299 297 295 293 292 290 289 289 289 289 288 289 289 289 288 288 287 288 287 286 285 284 282 281 280 279 278 278 278 278 278 278 278 278 278 278 277 276 275 272 270 268 267 267 266 266 265 263 262 261 261 260 260 259 259 258 257 256 255 253 251 250 248 248
305 303 302 301 300 299 297 295 294 292 291 290 290 290 290 290 290 290 290 289 288 288 287 287 285 283 282 282 281 281 281 281 281 281 281 281 281 281 281 280 279 278 276 274 272 270 268 267 266 266 266 265 264 263 262 261 260 260 259 259 258 257 256 256 255 253 252 250 249
302 301 300 300 298 297 295 294 292 291 290 290 291 291 291 291 291 290 288 287 287 286 286 285 283 282 281 281 282 282 283 283 283 283 282 281 281 281 280 280 278 276 274 273 271 269 268 267 266 266 266 266 265 264 263 262 261 260 259 258 258 257 256 255 254 253 252 251 251
301 300 299 298 296 294 293 292 291 290 290 290 291 291 291 290 289 288 286 286 285 284 283 282 282 282 282 282 283 284 284 284 283 282 282 281 280 279 278 277 276 275 274 273 271 269 268 267 267 267 266 266 266 265 264 262 261 260 259 258 258 257 256 255 253 252 251 251 250
300 299 297 296 294 293 293 292 292 291 291 291 291 291 289 288 287 286 285 284 283 282 282 282 283 284 285 285 285 285 284 283 282 281 280 279 278 277 276 275 275 274 273 273 272 271 270 268 268 267 267 267 266 265 264 263 262 260 260 259 258 257 256 254 253 252 251 250 250
299 298 297 295 295 294 294 294 293 292 291 291 291 290 288 287 287 286 284 283 283 283 283 284 285 286 286 286 285 284 283 282 280 279 278 278 277 277 276 275 274 273 273 272 271 271 270 270 269 268 268 267 266 265 264 263 261 260 260 259 258 257 256 254 253 252 251 250 250
299 298 298 297 297 297 296 295 294 293 292 292 291 289 288 287 286 286 285 285 285 286 287 288 288 287 286 285 285 283 282 280 280 279 278 278 278 277 276 275 274 273 272 271 271 270 270 270 269 268 267 266 265 264 263 262 262 261 260 259 258 257 256 254 253 252 251 250 250
301 300 300 300 300 299 298 297 296 294 293 292 291 290 289 288 287 287 288 289 290 290 290 290 289 288 286 285 284 283 282 280 280 280 279 278 278 277 276 276 275 274 272 271 271 270 269 269 268 267 266 266 265 265 264 263 262 261 261 260 259 257 256 254 253 252 251 251 250
302 303 303 302 301 300 298 297 296 295 294 293 291 290 290 289 290 290 291 292 293 292 291 290 289 288 287 287 286 285 284 282 281 281 280 280 278 277 276 275 274 273 273 272 271 270 270 269 268 267 266 266 265 265 264 264 263 262 261 260 259 257 256 255 254 253 252 251 250
305 305 304 303 302 301 299 298 297 296 295 293 292 291 291 292 293 293 294 294 294 293 292 291 290 290 289 288 288 287 286 284 283 281 281 280 279 278 277 276 275 274 273 272 272 271 270 269 268 267 266 265 265 264 264 263 263 262 261 260 259 258 256 255 254 253 252 251 250
306 306 305 303 302 301 300 299 298 296 295 294 293 293 293 294 295 296 296 296 295 294 293 292 291 291 290 289 289 288 287 286 284 282 281 280 279 279 279 278 277 276 275 273 272 271 270 269 268 267 266 266 265 265 264 263 262 261 261 260 259 257 256 254 253 252 251 250 249
307 307 306 304 303 302 301 300 298 297 295 294 295 295 296 297 298 298 297 296 295 294 294 293 292 291 291 290 289 288 287 286 285 284 283 282 281 281 281 280 278 276 275 273 272 271 271 271 270 269 268 267 267 267 266 265 265 264 263 263 262 260 258 256 254 252 250 249 248
308 307 306 305 304 303 302 300 299 297 296 296 297 299 299 300 300 299 298 297 296 296 295 294 293 293 292 292 290 289 287 286 286 286 286 285 284 284 282 280 278 276 275 273 273 273 273 274 274 274 274 274 274 274 274 273 272 271 271 270 269 268 266 264 261 258 255 253 251
309 308 307 305 305 303 302 301 299 299 299 300 301 302 302 302 301 300 299 298 298 298 297 297 296 295 294 293 291 289 288 287 287 287 288 288 287 285 283 281 279 277 276 276 277 278 279 279 279 280 281 281 280 279 278 276 274 273 273 272 272 271 270 268 266 264 262 260 257
309 308 306 306 305 304 303 302 301 302 302 303 304 304 303 303 302 301 300 300 300 300 299 299 298 296 295 292 291 291 290 290 290 289 289 288 287 286 285 283 281 280 281 282 284 285 285 285 284 283 282 281 280 279 277 276 274 272 271 269 268 267 266 265 265 264 263 261 260
309 308 307 307 306 305 304 304 304 305 305 306 306 305 305 304 303 302 302 301 302 302 301 299 298 297 295 293 293 293 293 293 292 291 290 289 288 287 287 286 286 286 286 288 289 289 288 287 285 284 283 281 279 278 276 275 273 271 269 267 266 264 263 262 262 261 260 258 257
309 309 309 308 308 307 307 307 307 308 308 308 307 306 305 305 304 304 303 303 303 303 302 300 298 296 295 295 295 295 294 294 293 292 291 290 290 289 290 290 290 290 290 292 291 291 289 287 286 284 283 282 280 278 275 274 272 271 269 267 265 264 263 262 261 260 258 257 256
311 311 311 310 309 309 309 309 309 310 310 308 308 307 306 305 305 305 304 304 304 303 302 301 299 298 297 297 297 296 296 295 295 294 294 293 293 293 294 294 294 294 294 294 293 291 289 287 286 285 284 283 281 278 275 273 271 270 268 267 265 264 264 264 263 262 260 259 258
313 312 311 310 310 310 311 311 311 311 311 309 308 307 307 307 306 306 305 305 304 303 302 301 300 300 300 300 300 299 298 298 298 297 297 297 297 298 298 298 297 296 296 295 293 291 289 288 288 287 285 284 282 279 276 274 272 270 269 267 266 266 265 265 264 263 262 261 260
314 313 312 311 311 312 313 313 313 312 311 310 309 309 308 308 307 307 307 306 305 305 304 304 304 304 304 304 302 302 301 301 301 301 301 301 301 301 301 300 299 298 296 294 293 291 291 290 290 289 288 288 286 283 280 278 275 273 271 269 268 267 266 265 264 263 262 261 260
315 314 313 313 313 314 315 315 314 313 312 311 310 310 309 309 308 308 308 307 307 307 307 308 308 308 307 307 305 304 304 304 304 304 304 304 304 304 303 302 299 297 295 294 293 293 293 292 292 292 292 293 290 287 283 280 277 273 271 269 268 266 265 264 263 262 261 259 258
316 316 315 315 316 316 317 316 315 314 313 312 312 311 311 310 309 309 309 309 310 310 309 309 309 308 308 308 307 307 307 306 306 306 307 307 307 306 304 302 299 296 295 295 295 295 295 295 296 297 298 298 294 289 284 281 278 275 272 271 270 268 266 265 263 262 261 259 257
317 317 316 316 318 318 318 317 316 314 314 314 314 313 312 311 311 311 312 313 312 311 310 309 309 309 309 309 308 308 308 308 307 308 309 309 308 306 304 302 299 298 298 298 298 298 298 299 301 302 303 302 297 291 286 284 281 278 276 275 273 271 269 267 265 263 261 259 257
318 318 317 318 319 319 319 318 316 315 315 315 315 314 313 312 313 313 313 314 313 311 311 311 312 311 311 312 311 311 310 309 309 309 310 310 308 307 305 303 302 301 301 301 300 301 303 305 306 307 306 304 298 293 289 286 283 280 278 276 274 272 270 267 265 263 261 259 257
319 319 319 319 320 320 319 318 317 317 317 317 316 315 314 314 314 314 315 316 314 313 314 314 315 315 315 315 314 312 311 310 310 310 310 311 310 308 306 305 303 303 303 303 304 305 307 309 309 310 309 305 301 296 291 287 283 280 277 275 273 272 270 268 266 264 262 260 257
321 321 321 321 321 320 319 319 319 319 320 319 317 316 316 316 315 316 317 317 316 316 317 317 317 317 317 317 314 312 311 310 311 311 312 312 311 309 307 305 305 305 305 306 308 309 311 311 311 312 311 307 302 298 293 288 284 282 280 279 277 276 275 274 272 270 267 264 260
323 323 323 322 321 320 319 320 321 321 321 319 318 318 318 319 318 318 319 318 318 319 319 318 318 318 317 316 314 312 312 312 313 314 314 314 312 310 308 307 307 308 309 310 311 311 312 312 312 313 312 308 304 300 295 290 288 286 285 284 284 284 284 282 279 275 272 269 265
325 325 324 322 320 320 320 322 323 323 321 319 318 318 319 320 319 319 320 320 321 321 320 318 318 318 317 317 314 314 314 315 316 317 317 316 313 311 310 309 310 310 311 311 312 312 313 314 314 316 315 311 308 303 298 294 291 290 290 291 291 291 289 286 282 278 275 272 269
326 326 325 322 320 321 322 325 325 323 321 318 318 319 320 320 320 322 324 324 325 324 322 319 319 319 319 318 316 316 317 318 319 320 319 318 314 313 312 311 311 311 312 312 313 313 315 316 318 319 319 316 312 308 303 299 296 296 297 299 299 296 292 289 284 280 276 276 275